Location: Zagreb
(45.8000°N, 16.0000°E)
Time: 00:08:18
(UTC+01:00)

Transit 2A Rocket - Pass Details

Date: 03 October 2020
Orbit: 586 x 916 km, 66.7° (Epoch: 28 October)

Event Time Altitude Azimuth Distance (km) Brightness Sun altitude
Rises 00:33:05 0° 329° (NNW) 3,443 9.0 -48.2°
Enters shadow 00:35:11 - 335° (NNW) 2,681 8.3 -48.2°
Reaches altitude 10° 00:35:49 10° 337° (NNW) 2,457 - -48.2°
Maximum altitude 00:41:08 40° 47° (NE) 1,144 - -48.2°
Drops below altitude 10° 00:45:58 10° 117° (ESE) 2,236 - -48.2°
Sets 00:48:21 0° 125° (SE) 3,100 - -48.2°
